This demonstration page uses our WeatherBlox Daily Observations layout. Learn more.

41.55636, -103.73856

Hourly Observations for August 1, 2019

Temp ( °F °C ) Dew Point ( °F °C ) Humidity (%) Winds ( mph kmh ) Pressure ( in mb ) Visibility ( mi km ) Precip ( " mm )
12:58 am 00:58 Clear 78 25.7 60 15.4 53 53 E 5 7 30.02 1017 10 16.0934 0 0
1:58 am 01:58 Clear 75 23.7 58 14.7 57 57 E 7 11 30.02 1017 10 16.0934 0 0
2:58 am 02:58 Cloudy 76 24.3 57 14 53 53 ENE 5 7 30.04 1017 10 16.0934 0 0
3:58 am 03:58 Mostly Cloudy 74 23.4 57 14 56 56 E 9 15 30.05 1018 10 16.0934 0 0
4:58 am 04:58 Mostly Cloudy 72 22.3 60 15.8 67 67 SSE 12 19 30.06 1018 10 16.0934 0 0
5:58 am 05:58 Mostly Cloudy 70 21.3 61 16.3 73 73 S 8 13 30.06 1018 10 16.0934 0 0
6:58 am 06:58 Mostly Cloudy 68 20.1 61 16.3 79 79 SSE 7 11 30.07 1018 10 16.0934 0 0
7:58 am 07:58 Mostly Clear 66 18.8 61 16.1 84 84 SSE 6 9 30.04 1017 10 16.0934 0 0
8:58 am 08:58 Clear 66 18.7 55 12.9 69 69 W 7 11 30.04 1017 10 16.0934 0 0
9:58 am 09:58 Mostly Clear 63 17 54 12.3 74 74 NW 3 6 30.03 1017 10 16.0934 0 0
10:58 am 10:58 Mostly Clear 62 16.4 54 12.1 76 76 Calm 30.02 1017 10 16.0934 0 0
11:58 am 11:58 Partly Cloudy 59 15.1 53 11.5 79 79 W 5 7 30.05 1018 10 16.0934 0 0
12:58 pm 12:58 Mostly Sunny 61 16.3 53 11.8 75 75 WNW 5 7 30.05 1018 10 16.0934 0 0
1:58 pm 13:58 Sunny 65 18.5 54 12.1 66 66 WNW 6 9 30.06 1018 10 16.0934 0 0
2:58 pm 14:58 Mostly Cloudy 66 19 55 12.7 67 67 WNW 7 11 30.07 1018 10 16.0934 0 0
3:58 pm 15:58 Mostly Sunny 67 19.7 56 13.6 68 68 WNW 5 7 30.08 1019 10 16.0934 0 0
4:58 pm 16:58 Partly Cloudy with Mist and Fog 72 22.3 60 15.7 66 66 ENE 5 7 30.08 1019 2 3.21868 0 0
5:58 pm 17:58 Sunny 75 23.7 60 15.8 61 61 Calm 30.08 1019 10 16.0934 0 0
6:58 pm 18:58 Mostly Sunny 78 25.7 60 15.4 53 53 Calm 30.06 1018 10 16.0934 0 0
7:58 pm 19:58 Mostly Sunny 78 25.8 59 15.2 52 52 Calm 30.05 1018 10 16.0934 0 0
8:58 pm 20:58 Mostly Cloudy 80 26.8 61 16.3 53 53 NNW 12 19 30.02 1017 10 16.0934 0 0
9:58 pm 21:58 Mostly Sunny 77 25.1 60 15.7 56 56 NNE 14 22 30.03 1017 10 16.0934 0 0
10:58 pm 22:58 Partly Cloudy 76 24.7 61 16 59 59 ENE 9 15 30.03 1017 10 16.0934 0 0
11:58 pm 23:58 Mostly Cloudy 68 19.8 58 14.4 71 71 S 8 13 30.06 1018 10 16.0934 0 0

Powered by AerisWeather